Location: Harbor Hills
(33.7803°N, 118.3148°W)
Time: 05:45:32
(UTC+00:00)

Cosmos 1943 Rocket - Pass Details

Date: 05 August 2024
Orbit: 813 x 841 km, 71.0° (Epoch: 14 September)

Event Time Altitude Azimuth Distance (km) Brightness Sun altitude
Rises 12:21:46 0° 339° (NNW) 3,345 5.4 -9.7°
Reaches altitude 10° 12:24:11 10° 340° (NNW) 2,407 4.7 -9.2°
Maximum altitude 12:29:42 88° 67° (ENE) 818 2.2 -8.2°
Drops below altitude 10° 12:35:11 10° 160° (SSE) 2,391 4.5 -7.2°
Sets 12:37:36 0° 160° (SSE) 3,321 5.2 -6.7°
